Regional Weather Roundup
Issued by NWS

Home | Current Version | Previous Version | Text Only | Print | Product List | Glossary On
Versions: 1 2 3 4 5 6 7 8 9 10 11 12 13 14 15 16 17 18 19 20 21 22 23 24 25 26 27 28
000
ASUS45 KCYS 190210
RWRWY

WYOMING REGIONAL WEATHER ROUNDUP
NATIONAL WEATHER SERVICE CHEYENNE WY
700 PM MST THU JAN 18 2018

NOTE:  "FAIR" INDICATES FEW OR NO CLOUDS BELOW 12,000 FEET
WITH NO SIGNIFICANT WEATHER AND/OR OBSTRUCTIONS TO VISIBILITY.

WYZ001-190300-
YELLOWSTONE NATIONAL PARK

CITY           SKY/WX    TMP DP  RH WIND       PRES   REMARKS
LK YELLOWSTONE   N/A     26  24  92 CALM      29.93F
W YELLOWSTONE  NOT AVBL

$$
WYZ002>013-054>058-071-098>099-190300-
NORTHERN WYOMING

CITY           SKY/WX    TMP DP  RH WIND       PRES   REMARKS
JACKSON        CLOUDY    35  28  75 NW3       29.95F
CODY           FAIR      35  24  64 CALM      29.80F
GREYBULL       FAIR      22  17  81 VRB5      29.83F WCI  16
WORLAND        FAIR      23  19  85 S7        29.83F WCI  15
SHERIDAN       FAIR      36  28  73 SW12      29.73F WCI  28
BUFFALO        FAIR      52  23  32 NW7       29.77S
GILLETTE       FAIR      47  31  53 SW26G36   29.75F
HULETT         FAIR      46  28  49 SW14      29.78F
NEWCASTLE      FAIR      39  27  60 E5        29.85F

$$
WYZ014>020-022>026-101>103-190300-
CENTRAL WYOMING

CITY           SKY/WX    TMP DP  RH WIND       PRES   REMARKS
BIG PINEY      FAIR      23  18  81 N3        30.04F
PINEDALE       FAIR      19  16  86 W5        30.05S WCI  13
DUBOIS         MOCLDY    37  25  60 NW12      29.92F WCI  30
LANDER         MOCLDY    28  20  71 W7        29.91F WCI  21
RIVERTON       FAIR      27  18  69 CALM      29.92F
CASPER         FAIR      45  21  38 SW23G31   29.91F
DOUGLAS        FAIR      46  26  45 VRB5      29.87F

$$
WYZ021-027>030-104>119-190300-
SOUTHERN WYOMING

CITY           SKY/WX    TMP DP  RH WIND       PRES   REMARKS
EVANSTON       FAIR      41  25  53 SW12      30.02F
FORT BRIDGER   MOCLDY    44  22  41 S3        30.05F
ROCK SPRINGS   FAIR      38  18  44 S8        30.02F WCI  32
DIXON            N/A     32  22  66 CALM      30.14S
RAWLINS        FAIR      41  16  36 SW20G25   30.04F
SARATOGA       FAIR      36  18  48 SE12      30.08F WCI  27
LARAMIE        FAIR      39  14  36 SW16      30.04F WCI  30
CHEYENNE       FAIR      48  17  29 SW12      29.97S
TORRINGTON     FAIR      47  28  47 S3        29.87S

$$




USA.gov is the U.S. government's official web portal to all federal, state and local government web resources and services.